This demonstration page uses our WeatherBlox Daily Observations layout. Learn more.

Left ArrowRight Arrow

39.29038, -76.61219

Hourly Observations for May 4, 2017

Temp ( °F °C ) Dew Point ( °F °C ) Humidity (%) Winds ( mph kmh ) Pressure ( in mb ) Visibility ( mi km ) Precip ( " mm )
12:54 am 00:54 undefined 57 13.9 37 2.8 47 47 undefined N/A 30.19 1022 N/A N/A
1:54 am 01:54 undefined 57 13.9 36 2.2 45 45 undefined N/A 30.19 1022 N/A N/A
2:54 am 02:54 undefined 56 13.3 35 1.7 46 46 undefined N/A 30.19 1023 N/A N/A
3:54 am 03:54 undefined 56 13.3 36 2.2 47 47 undefined N/A 30.21 1023 N/A N/A
4:54 am 04:54 undefined 56 13.3 37 2.8 49 49 undefined N/A 30.21 1023 N/A N/A
5:54 am 05:54 undefined 55 12.8 36 2.2 49 49 undefined N/A 30.22 1024 N/A N/A
6:54 am 06:54 undefined 55 12.8 33 0.6 44 44 undefined N/A 30.22 1023 N/A N/A
7:54 am 07:54 undefined 57 13.9 34 1.1 42 42 undefined N/A 30.24 1024 N/A N/A
8:54 am 08:54 undefined 57 13.9 38 3.3 49 49 undefined N/A 30.24 1024 N/A N/A
9:54 am 09:54 undefined 59 15 42 5.6 54 54 undefined N/A 30.23 1024 N/A N/A
10:54 am 10:54 undefined 61 16.1 43 6.1 52 52 undefined N/A 30.22 1024 N/A N/A
11:54 am 11:54 undefined 64 17.8 41 5 43 43 undefined N/A 30.22 1023 N/A N/A
12:54 pm 12:54 undefined 64 17.8 40 4.4 41 41 undefined N/A 30.19 1022 N/A N/A
1:54 pm 13:54 undefined 65 18.3 40 4.4 40 40 undefined N/A 30.16 1021 N/A N/A
2:54 pm 14:54 undefined 64 17.8 40 4.4 41 41 undefined N/A 30.14 1021 N/A N/A
3:54 pm 15:54 undefined 65 18.3 39 3.9 39 39 undefined N/A 30.12 1020 N/A N/A
4:54 pm 16:54 undefined 64 17.8 43 6.1 46 46 undefined N/A 30.09 1019 N/A N/A
5:54 pm 17:54 undefined 63 17.2 44 6.7 50 50 undefined N/A 30.08 1019 N/A N/A
6:54 pm 18:54 undefined 62 16.7 44 6.7 52 52 undefined N/A 30.06 1018 N/A N/A
7:54 pm 19:54 undefined 61 16.1 42 5.6 50 50 undefined N/A 30.05 1018 N/A N/A
8:54 pm 20:54 undefined 59 15 44 6.7 58 58 undefined N/A 30.06 1018 N/A N/A
9:54 pm 21:54 undefined 57 13.9 48 8.9 72 72 undefined N/A 30.05 1018 N/A N/A
10:54 pm 22:54 undefined 57 13.9 49 9.4 74 74 undefined N/A 29.99 1016 N/A N/A
11:54 pm 23:54 undefined 56 13.3 51 10.6 84 84 undefined N/A 29.97 1015 N/A 0.04 1.02

Powered by AerisWeather